TimeCDT,TemperatureF,Dew PointF,Humidity,Sea Level PressureIn,VisibilityMPH,Wind Direction,Wind SpeedMPH,Gust SpeedMPH,PrecipitationIn,Events,Conditions,WindDirDegrees,DateUTC
12:53 AM,50.0,30.0,46,29.54,10.0,SW,18.4,29.9,N/A,,Mostly Cloudy,230,2014-04-10 05:53:00
1:53 AM,48.9,30.9,50,29.49,10.0,SW,12.7,23.0,0.00,,Mostly Cloudy,220,2014-04-10 06:53:00
2:53 AM,48.0,30.9,52,29.50,10.0,SW,11.5,-,N/A,,Mostly Cloudy,230,2014-04-10 07:53:00
3:53 AM,46.9,33.1,59,29.53,10.0,WSW,10.4,-,0.00,,Overcast,250,2014-04-10 08:53:00
4:53 AM,46.9,37.9,71,29.56,10.0,NW,9.2,19.6,0.00,,Mostly Cloudy,320,2014-04-10 09:53:00
5:53 AM,42.1,35.1,76,29.59,10.0,WNW,10.4,-,0.00,Rain,Light Rain,290,2014-04-10 10:53:00
6:53 AM,39.0,35.1,86,29.62,10.0,West,8.1,-,0.00,,Overcast,270,2014-04-10 11:53:00
7:53 AM,42.1,36.0,79,29.63,10.0,West,10.4,-,N/A,,Clear,270,2014-04-10 12:53:00
9:53 AM,48.0,28.0,46,29.63,10.0,West,13.8,23.0,N/A,,Clear,280,2014-04-10 14:53:00
10:53 AM,50.0,23.0,35,29.64,10.0,WNW,17.3,28.8,N/A,,Clear,290,2014-04-10 15:53:00
11:53 AM,51.1,19.9,29,29.63,10.0,WNW,21.9,32.2,N/A,,Clear,290,2014-04-10 16:53:00
12:53 PM,54.0,21.9,29,29.65,10.0,WNW,20.7,39.1,N/A,,Clear,300,2014-04-10 17:53:00
1:53 PM,53.1,23.0,31,29.67,10.0,West,19.6,33.4,N/A,,Clear,280,2014-04-10 18:53:00
2:53 PM,54.0,23.0,30,29.68,10.0,WNW,18.4,34.5,N/A,,Clear,290,2014-04-10 19:53:00
3:53 PM,54.0,19.9,26,29.71,10.0,West,18.4,28.8,N/A,,Clear,280,2014-04-10 20:53:00
4:53 PM,53.1,17.1,24,29.74,10.0,WNW,13.8,27.6,N/A,,Clear,290,2014-04-10 21:53:00
5:53 PM,51.1,16.0,25,29.78,10.0,WNW,15.0,25.3,N/A,,Clear,290,2014-04-10 22:53:00
6:53 PM,48.9,15.1,26,29.82,10.0,West,13.8,21.9,N/A,,Clear,280,2014-04-10 23:53:00
7:53 PM,45.0,15.1,30,29.85,10.0,West,9.2,20.7,N/A,,Clear,280,2014-04-11 00:53:00
8:53 PM,39.0,18.0,43,29.88,10.0,West,6.9,-,N/A,,Clear,270,2014-04-11 01:53:00
9:53 PM,37.9,17.1,43,29.90,10.0,West,4.6,-,N/A,,Clear,280,2014-04-11 02:53:00
10:53 PM,28.9,19.9,69,29.91,10.0,West,4.6,-,N/A,,Clear,260,2014-04-11 03:53:00
11:53 PM,28.0,19.9,72,29.92,10.0,West,3.5,-,N/A,,Clear,260,2014-04-11 04:53:00